Location: Newark
(47.5833°N, 8.1500°E)
Time: 16:45:41
(UTC+00:00)

Explorer 11/Cluster Stage 4 - All Passes

Search period start: 21 October 2020 00:00
Search period end: 31 October 2020 00:00
Orbit: 467 x 1258 km, 28.8° (Epoch: 20 October)

Date Brightness Start Highest point End Pass type
(mag) Time Alt. Az. Time Alt. Az. Time Alt. Az.
21 Oct - 15:25:03 10° SSW 15:26:40 11° S 15:28:12 10° SSE daylight
22 Oct - 13:27:16 10° S 13:28:04 10° SSE 13:28:51 10° SSE daylight
22 Oct - 15:13:16 10° SSW 15:15:39 12° S 15:17:52 10° SSE daylight
23 Oct - 13:14:30 10° S 13:16:58 12° S 13:19:19 10° SSE daylight
23 Oct - 15:01:40 10° SSW 15:04:36 13° S 15:07:18 10° SSE daylight
24 Oct - 13:02:31 10° SSW 13:05:52 13° S 13:09:01 10° SE daylight
24 Oct - 14:50:11 10° SW 14:53:31 14° S 14:56:37 10° SSE daylight
25 Oct - 12:50:44 10° SSW 12:54:44 15° S 12:58:28 10° SE daylight
25 Oct - 14:38:46 10° SW 14:42:26 15° S 14:45:49 10° SSE daylight
26 Oct - 10:55:43 10° SSE 10:55:49 10° SSE 10:55:55 10° SSE daylight
26 Oct - 12:39:07 10° SSW 12:43:35 16° S 12:47:46 10° SE daylight
26 Oct - 14:27:24 10° SW 14:31:19 15° S 14:34:55 10° SSE daylight
27 Oct - 10:42:12 10° S 10:44:37 11° SSE 10:47:00 10° SE daylight
27 Oct - 12:27:36 10° SSW 12:32:24 17° S 12:36:58 10° SE daylight
27 Oct - 14:16:06 10° SW 14:20:10 15° SSW 14:23:57 10° SSE daylight
28 Oct - 10:30:07 10° S 10:33:24 13° SSE 10:36:39 10° SE daylight
28 Oct - 12:16:09 10° SW 12:21:14 18° S 12:26:04 10° SE daylight
28 Oct - 14:04:51 10° SW 14:09:01 15° SSW 14:12:54 10° SSE daylight
29 Oct - 10:18:20 10° S 10:22:10 14° SSE 10:26:01 10° SE daylight
29 Oct - 12:04:47 10° SW 12:10:03 19° S 12:15:05 10° SE daylight
29 Oct - 13:53:41 10° SW 13:57:50 15° SSW 14:01:45 10° SSE daylight
30 Oct - 10:06:44 10° SSW 10:10:57 15° SSE 10:15:12 10° SE daylight
30 Oct - 11:53:28 10° SW 11:58:50 19° S 12:04:03 10° SE daylight
30 Oct - 13:42:34 10° SW 13:46:38 15° SSW 13:50:31 10° SSE daylight
